Location: Regensburg
(48.4565°N, 10.3217°E)
Time: 13:59:23
(UTC+01:00)

Tiangong 1 - Visible Passes

Search period start: 24 November 2017 00:00
Search period end: 04 December 2017 00:00
Orbit: 283 x 307 km, 42.8° (Epoch: 24 November)

Date Brightness Start Highest point End Pass type
(mag) Time Alt. Az. Time Alt. Az. Time Alt. Az.
27 Nov 3.1 18:00:30 10° S 18:01:48 13° SSE 18:02:12 13° SSE visible
28 Nov 2.7 18:05:48 10° SSW 18:07:38 17° SSE 18:07:57 17° SSE visible
29 Nov 2.5 18:11:19 10° SW 18:13:23 21° S 18:13:34 21° SSE visible
30 Nov 2.4 18:16:52 10° SW 18:19:00 23° S 18:19:03 22° S visible
01 Dec 2.6 18:22:22 10° WSW 18:24:26 22° S 18:24:26 22° S visible
02 Dec 2.9 18:27:53 10° WSW 18:29:45 19° SSW 18:29:45 19° SSW visible
03 Dec 2.7 16:58:39 10° SW 17:00:47 23° S 17:02:55 10° SE visible
03 Dec 3.3 18:33:25 10° SW 18:34:58 14° SSW 18:35:00 14° SSW visible
